Location: Ferchesar
(52.6477°N, 12.4298°E)
Time: 17:43:11
(UTC+01:00)

Transit 4A - Pass Details

Date: 13 December 2021
Orbit: 864 x 980 km, 66.8° (Epoch: 16 January)

Event Time Altitude Azimuth Distance (km) Brightness Sun altitude
Rises 18:59:05 0° 242° (WSW) 3,488 11.9 -26.4°
Reaches altitude 10° 19:01:39 10° 248° (WSW) 2,567 11.1 -26.8°
Maximum altitude 19:07:22 47° 322° (NW) 1,199 8.6 -27.6°
Enters shadow 19:09:16 36° 7° (N) 1,426 8.7 -27.9°
